TimeIST,TemperatureF,Dew PointF,Humidity,Sea Level PressureIn,VisibilityMPH,Wind Direction,Wind SpeedMPH,Gust SpeedMPH,PrecipitationIn,Events,Conditions,WindDirDegrees,DateUTC
12:00 AM,55.4,55.4,100,30.12,1.2,Calm,Calm,-,N/A,,Mist,0,2013-11-28 18:30:00
12:30 AM,53.6,53.6,100,30.12,1.2,Calm,Calm,-,N/A,,Mist,0,2013-11-28 19:00:00
1:00 AM,53.6,53.6,100,30.12,1.2,Calm,Calm,-,N/A,,Mist,0,2013-11-28 19:30:00
1:30 AM,53.6,53.6,100,30.12,1.2,Calm,Calm,-,N/A,,Mist,0,2013-11-28 20:00:00
2:00 AM,51.8,51.8,100,30.09,1.0,Calm,Calm,-,N/A,,Mist,0,2013-11-28 20:30:00
2:30 AM,52,52,100,29.97,1,Calm,Calm,,,,Mist,,2013-11-28 21:00:00
2:30 AM,51.8,51.8,100,30.09,0.9,Calm,Calm,-,N/A,,Mist,0,2013-11-28 21:00:00
3:00 AM,51.8,51.8,100,30.09,0.9,Calm,Calm,-,N/A,,Mist,0,2013-11-28 21:30:00
3:30 AM,51.8,51.8,100,30.09,0.9,Calm,Calm,-,N/A,,Mist,0,2013-11-28 22:00:00
4:00 AM,51.8,51.8,100,30.09,0.9,Calm,Calm,-,N/A,,Mist,0,2013-11-28 22:30:00
4:30 AM,51.8,51.8,100,30.09,0.9,Calm,Calm,-,N/A,,Mist,0,2013-11-28 23:00:00
5:00 AM,50.0,50.0,100,30.06,0.9,Calm,Calm,-,N/A,,Mist,0,2013-11-28 23:30:00
5:30 AM,51,51,99,30.09,1,Calm,Calm,,,,Mist,,2013-11-29 00:00:00
5:30 AM,50.0,50.0,100,30.06,0.9,Calm,Calm,-,N/A,,Mist,0,2013-11-29 00:00:00
6:00 AM,51.8,51.8,100,30.09,0.9,Calm,Calm,-,N/A,,Mist,0,2013-11-29 00:30:00
6:30 AM,50.0,50.0,100,30.09,0.9,Calm,Calm,-,N/A,,Mist,0,2013-11-29 01:00:00
7:00 AM,50.0,50.0,100,30.09,0.6,Calm,Calm,-,N/A,,Mist,0,2013-11-29 01:30:00
7:30 AM,48.2,48.2,100,30.09,0.6,Calm,Calm,-,N/A,,Mist,0,2013-11-29 02:00:00
8:00 AM,50.0,50.0,100,30.12,0.6,Calm,Calm,-,N/A,,Mist,0,2013-11-29 02:30:00
8:30 AM,,53,,30.13,0,North,17.3,,,,,10,2013-11-29 03:00:00
8:30 AM,51.8,51.8,100,30.12,0.6,Calm,Calm,-,N/A,,Mist,0,2013-11-29 03:00:00
9:00 AM,55.4,55.4,100,30.12,0.6,Calm,Calm,-,N/A,,Mist,0,2013-11-29 03:30:00
9:30 AM,60.8,60.8,100,30.12,0.6,Calm,Calm,-,N/A,,Mist,0,2013-11-29 04:00:00
10:00 AM,62.6,59.0,88,30.15,1.1,NW,4.6,-,N/A,,Mist,320,2013-11-29 04:30:00
10:30 AM,66.2,55.4,68,30.15,1.2,Variable,8.1,-,N/A,,Mist,0,2013-11-29 05:00:00
11:30 AM,71,52,41,30.11,1,NW,10.4,,,,Haze,320,2013-11-29 06:00:00
11:30 AM,71.6,51.8,50,30.12,2.2,NW,10.4,-,N/A,,Haze,320,2013-11-29 06:00:00
12:30 PM,75.2,51.8,44,30.09,2.5,NW,10.4,-,N/A,,Haze,310,2013-11-29 07:00:00
1:00 PM,75.2,51.8,44,30.09,2.5,NW,10.4,-,N/A,,Haze,310,2013-11-29 07:30:00
1:30 PM,77.0,50.0,39,30.06,2.5,WNW,10.4,-,N/A,,Haze,300,2013-11-29 08:00:00
2:00 PM,78.8,50.0,36,30.04,2.5,WNW,10.4,-,N/A,,Haze,300,2013-11-29 08:30:00
2:30 PM,79,50,25,30.01,2,WNW,10.4,,,,Haze,290,2013-11-29 09:00:00
2:30 PM,78.8,46.4,32,30.04,3.1,WNW,10.4,-,N/A,,Haze,290,2013-11-29 09:00:00
3:00 PM,78.8,46.4,32,30.04,3.1,West,10.4,-,N/A,,Haze,280,2013-11-29 09:30:00
3:30 PM,78.8,46.4,32,30.01,3.1,WNW,11.5,-,N/A,,Haze,290,2013-11-29 10:00:00
4:00 PM,78.8,46.4,32,30.01,3.1,WNW,9.2,-,N/A,,Haze,300,2013-11-29 10:30:00
4:30 PM,77.0,46.4,34,30.01,3.1,West,6.9,-,N/A,,Haze,280,2013-11-29 11:00:00
5:00 PM,73.4,46.4,38,30.01,3.1,Variable,2.3,-,N/A,,Haze,0,2013-11-29 11:30:00
5:30 PM,71,48,33,29.99,2,Calm,Calm,,,,Haze,,2013-11-29 12:00:00
5:30 PM,69.8,48.2,46,30.01,3.1,Calm,Calm,-,N/A,,Haze,0,2013-11-29 12:00:00
6:00 PM,66.2,50.0,56,30.01,3.1,Calm,Calm,-,N/A,,Haze,0,2013-11-29 12:30:00
6:30 PM,62.6,50.0,63,30.01,3.1,Calm,Calm,-,N/A,,Haze,0,2013-11-29 13:00:00
7:00 PM,62.6,50.0,63,30.01,3.1,Calm,Calm,-,N/A,,Haze,0,2013-11-29 13:30:00
7:30 PM,60.8,50.0,68,30.04,3.1,Calm,Calm,-,N/A,,Haze,0,2013-11-29 14:00:00
8:00 PM,60.8,51.8,72,30.04,2.8,Calm,Calm,-,N/A,,Haze,0,2013-11-29 14:30:00
8:30 PM,58,54,80,30.04,1,Calm,Calm,,,,Mist,,2013-11-29 15:00:00
8:30 PM,59.0,53.6,82,30.04,2.2,Calm,Calm,-,N/A,,Mist,0,2013-11-29 15:00:00
9:00 PM,57.2,53.6,88,30.04,2.2,Calm,Calm,-,N/A,,Mist,0,2013-11-29 15:30:00
9:30 PM,57.2,50.0,77,30.04,2.2,Calm,Calm,-,N/A,,Mist,0,2013-11-29 16:00:00
10:00 PM,55.4,51.8,88,30.04,2.2,Calm,Calm,-,N/A,,Mist,0,2013-11-29 16:30:00
10:30 PM,55.4,50.0,82,30.04,2.2,Calm,Calm,-,N/A,,Mist,0,2013-11-29 17:00:00
11:00 PM,55.4,55.4,100,30.04,2.2,Calm,Calm,-,N/A,,Mist,0,2013-11-29 17:30:00
11:30 PM,54,54,100,30.04,1,Calm,Calm,,,,Mist,,2013-11-29 18:00:00
11:30 PM,53.6,53.6,100,30.04,1.9,Calm,Calm,-,N/A,,Mist,0,2013-11-29 18:00:00